Terug naar catalogus

STARLINK-34143

ActiefCommunicatieVLEO
NORAD 63896·PAYLOAD·🇺🇸 United States

Gelanceerd May 10, 2025 vanaf Cape Canaveral Space Force Station

Loading…

Volgende Passages (komende 24 uur)

TLE

VersSource: CelesTrak SupGP

Epoch: Sep 14, 2026, 22:38 UTC

1 63896C 25095G   26257.94354167 -.00038492  00000+0 -13939-2 0  2575
2 63896  43.0003 187.3237 0001352 268.5179  59.7117 15.27603535    12

Volg STARLINK-34143 in realtime met AllMySat

Download on the App Store